Location: Gajan
(43.0218°N, 1.1244°E)
Time: 15:24:50
(UTC+00:00)

ATLAS 3B R/B - Pass Details

Date: 22 April 2021
Orbit: 1006 x 1189 km, 63.8° (Epoch: 21 April)

Event Time Altitude Azimuth Distance (km) Brightness Sun altitude
Rises 19:21:29 0° 324° (NW) 3,889 6.8 -6.8°
Reaches altitude 10° 19:24:06 10° 325° (NW) 2,956 6.1 -7.3°
Maximum altitude 19:31:11 84° 54° (NE) 1,143 2.9 -8.4°
Drops below altitude 10° 19:38:32 10° 144° (SE) 3,066 4.5 -9.6°
Enters shadow 19:39:09 - 144° (SE) 3,284 4.7 -9.7°
